User: anonymous   Login
Location: Les Coudrans
(46.1056°N, 1.1158°W)
Time: 14:20:13
(UTC+00:00)
Language:

Cosmos 1271 Rocket - Orbit

View from above orbital plane
View from above orbital plane
View from above satellite
View from above satellite

Ground track
Ground track

The orbit data is extracted from the following two-line orbital elements,

1 12465U 81046B   21128.86681137  .00000140  00000-0  60658-5 0  9996
2 12465  81.2430 189.9361 0032698 246.2981 113.4816 15.14930208169547
Epoch (UTC): 08 May 2021 20:48:12
Eccentricity: 0.0032698
inclination: 81.2430°
perigee height: 498 km
apogee height: 544 km
right ascension of ascending node: 189.9361°
argument of perigee: 246.2981°
revolutions per day: 15.14930208
mean anomaly at epoch: 113.4816°
orbit number at epoch: 16954

The dashed part of the orbit path shows where the satellite is in the earth's shadow,  

DLR